Starlink 30882

operational
NORAD ID: 58379 Int'l Des: 2023-178 Owner: SPXS Country: US Constellation: starlink
LEOCIRCULAR

Starlink 30882について

説明を読み込み中...

リアルタイム位置

3D地球を読み込み中...

次回通過

高度履歴

Altitude vs Time

uPlot chart will show altitude changes over time

軌道要素

1 58379U 23178F 25304.12132603 -.00000474 00000-0 -38943-5 0 9994
2 58379 53.1597 242.9262 0001391 94.6171 265.4988 15.30186188110053
Epoch: Oct 31, 2025 • Age: 21 hours

現在のステータス

高度 485.1 km
速度 7.62 km/s
衛星直下点 -30.45°S, 40.58°E
打ち上げ日 Nov 20, 2023
運用期間 1.9 years
タイプ internet

技術仕様

分類 Payload
質量 730.00 kg
乾燥質量 700.00 kg
総質量 730.00 kg
長さ 0.30 m
直径 4.10 m
スパン 29.00 m
形状 Box + pan
製造者 SPXS
バスタイプ Starlink V2M
フェーズステータス In Orbit
所有者/国 SPXS/US

大規模コンステレーション

Loading constellations...